Home   Weather   Schwabach   Past weeks

Flag for Germany Past Weather in Schwabach, Bavaria, Germany — Yesterday and Last 2 Weeks

Now
32 °F

Sleet. Overcast.


Feels Like: 32 °F
Forecast: 26 / 37 °F
Wind: No wind

Location: Nuernberg

Current Time: Dec 2, 2016 at 8:57:51 pm

Latest Report: Dec 2, 2016 at 8:20 pm


Visibility: N/A

Pressure: 30.18 "Hg

Humidity: 93%

Dew Point: 30 °F

Location of SchwabachLocation

Past Weather in Schwabach — Graph

°F

Schwabach Temperature Yesterday

Maximum temperature yesterday: 39 °F (at 1:20 pm)
Minimum temperature yesterday: 36 °F (at 12:20 am)
Average temperature yesterday: 37 °F

High & Low Weather Summary for the Past Weeks

 TemperatureHumidityPressure
High59 °F (Nov 18, 11:20 am)100% (Nov 19, 2:20 am)30.54 "Hg (Nov 19, 2:20 am)
Low16 °F (Nov 30, 4:20 am)48% (Nov 21, 11:50 am)29.59 "Hg (Nov 18, 12:20 pm)
Average40 °F86%30.05 "Hg
* Reported Nov 17 7:20 pm — Dec 2 7:20 pm, Schwabach, Weather by CustomWeather, © 2016

Note: Actual official high and low records may vary slightly from our data, if they occured in-between our weather recording intervals... More about our weather records

Advertising

Schwabach Weather History for the Previous 24 Hours

Scroll right to see more
 ConditionsComfort  
Time TempWeatherWind HumidityBarometerVisibility
7:20 pm
Fri, Dec 2
36 °FFog.No wind93%30.18 "HgN/A
6:50 pm36 °FPassing clouds.2 mph100%30.18 "HgN/A
6:20 pm36 °FFog.1 mph93%30.18 "HgN/A
5:50 pm36 °FFog.2 mph100%30.18 "HgN/A
5:20 pm37 °FFog.1 mph100%30.15 "HgN/A
4:50 pm37 °FPassing clouds.No wind93%30.15 "HgN/A
4:20 pm39 °FPartly cloudy.No wind93%30.15 "HgN/A
3:50 pm39 °FBroken clouds.No wind93%30.15 "HgN/A
3:20 pm39 °FBroken clouds.1 mph93%30.15 "HgN/A
2:50 pm39 °FLight rain. Broken clouds.No wind93%30.12 "HgN/A
2:20 pm39 °FBroken clouds.1 mph93%30.12 "HgN/A
1:50 pm39 °FLight rain. Partly sunny.2 mph93%30.12 "Hg6 mi
1:20 pm39 °FLight rain. Broken clouds.3 mph93%30.12 "Hg6 mi
12:50 pm41 °FLight rain. Fog.7 mph93%30.12 "Hg3 mi
12:20 pm41 °FLight rain. Partly sunny.7 mph93%30.12 "Hg4 mi
11:50 am41 °FLight rain. Partly sunny.9 mph93%30.12 "Hg4 mi
11:20 am41 °FLight rain. Partly sunny.10 mph87%30.09 "HgN/A
10:50 am41 °FPartly sunny.16 mph87%30.09 "HgN/A
10:20 am41 °FPartly sunny.17 mph87%30.09 "HgN/A
9:50 am41 °FPartly sunny.16 mph87%30.09 "HgN/A
9:20 am41 °FBroken clouds.17 mph87%30.09 "HgN/A
8:50 am39 °FBroken clouds.17 mph87%30.09 "HgN/A
8:20 am39 °FPartly sunny.13 mph87%30.09 "HgN/A
7:50 am39 °FPassing clouds.14 mph87%30.07 "HgN/A
7:20 am39 °FPassing clouds.16 mph87%30.07 "HgN/A
6:50 am39 °FPassing clouds.15 mph87%30.07 "HgN/A
6:20 am39 °FPassing clouds.14 mph87%30.07 "HgN/A
5:50 am39 °FPassing clouds.16 mph87%30.07 "HgN/A
5:20 am39 °FPartly cloudy.17 mph93%30.07 "HgN/A
4:50 am39 °FPartly cloudy.17 mph93%30.07 "HgN/A
4:20 am39 °FPartly cloudy.17 mph93%30.07 "HgN/A
3:50 am39 °FPartly cloudy.16 mph93%30.07 "HgN/A
3:20 am39 °FPartly cloudy.15 mph93%30.07 "HgN/A
2:50 am39 °FPartly cloudy.15 mph93%30.09 "HgN/A
2:20 am39 °FPartly cloudy.14 mph93%30.09 "HgN/A
1:50 am39 °FPartly cloudy.15 mph93%30.09 "HgN/A
1:20 am39 °FPartly cloudy.13 mph87%30.09 "HgN/A
12:50 am37 °FPartly cloudy.12 mph93%30.09 "HgN/A
12:20 am39 °FPassing clouds.9 mph87%30.12 "HgN/A
11:50 pm
Thu, Dec 1
39 °FPassing clouds.12 mph87%30.12 "HgN/A
11:20 pm37 °FPassing clouds.12 mph93%30.12 "HgN/A
10:50 pm37 °FPassing clouds.14 mph93%30.15 "HgN/A
10:20 pm37 °FPartly cloudy.15 mph87%30.15 "HgN/A
9:50 pm37 °FPartly cloudy.16 mph87%30.15 "HgN/A
9:20 pm37 °FPartly cloudy.18 mph87%30.15 "HgN/A
8:50 pm37 °FPartly cloudy.12 mph87%30.15 "HgN/A
8:20 pm37 °FPartly cloudy.13 mph87%30.15 "HgN/A
Weather by CustomWeather, © 2016

See weather overviewHow to use our weather pages